Location: Marsån
(66.4167°N, 22.2833°E)
Time: 08:36:20
(UTC+00:00)

Meteor 2-12 Rocket - Pass Details

Date: 24 February 2024
Orbit: 935 x 958 km, 82.5° (Epoch: 28 April)

Event Time Altitude Azimuth Distance (km) Brightness Sun altitude
Rises 18:34:07 0° 340° (NNW) 3,632 8.1 -19.4°
Reaches altitude 10° 18:36:37 10° 341° (NNW) 2,681 7.3 -19.7°
Maximum altitude 18:42:46 87° 70° (ENE) 953 4.4 -20.2°
Enters shadow 18:46:33 25° 161° (SSE) 1,811 5.5 -20.6°
